Simultaneous Nadir Overpasses (SNOs) Predictions

Prediction of SNOs between AQUA and GOES-15 Satellite Orbit:

Table of predicted SNOs for the next 14.0 days since TLE Epoch: 3/18/2023
Index Date Time (AQUA) AQUA Lat,Lon GOES-15 Lat,Lon Distance(km) Time Diff (sec)
1 03/18/2023 10:29:27 0.79,-130.75 0.14,-127.70 347.51 80
2 03/20/2023 10:15:51 0.08,-127.44 0.15,-127.78 38.40 80
3 03/22/2023 10:02:14 -0.63,-124.12 0.15,-127.86 424.64 80
4 03/22/2023 22:23:17 -0.41,-129.23 -0.15,-127.91 148.99 80
5 03/24/2023 22:09:39 0.31,-125.90 -0.15,-127.99 237.39 80
6 03/25/2023 10:30:30 0.81,-130.95 0.14,-127.97 339.50 80
7 03/27/2023 10:16:51 0.09,-127.62 0.15,-128.04 46.73 80
8 03/29/2023 10:03:11 -0.63,-124.29 0.16,-128.10 432.72 80
9 03/29/2023 22:24:13 -0.41,-129.40 -0.15,-128.15 141.16 80
10 03/31/2023 22:10:32 0.32,-126.06 -0.16,-128.21 245.13 80
